Data supplied by UK-AIR on 28/3/2018
All Data GMT hour ending 
Status: R =Ratified P=Provisional,P*=As supplied
,,Horley,,,,,,,,,,,,,,,,,,,,,,,
Date,time,"Nitric oxide",status,unit,"Nitrogen dioxide",status,unit,"Nitrogen oxides as nitrogen dioxide",status,unit
 
01-01-2017,01:00,11.23418,R,ugm-3,33.03270,R,ugm-3,50.25821,R,ugm-3
01-01-2017,02:00,3.91303,R,ugm-3,20.91434,R,ugm-3,26.91423,R,ugm-3
01-01-2017,03:00,5.55398,R,ugm-3,20.52667,R,ugm-3,29.04265,R,ugm-3
01-01-2017,04:00,3.94459,R,ugm-3,21.44955,R,ugm-3,27.49783,R,ugm-3
01-01-2017,05:00,1.86185,R,ugm-3,19.44214,R,ugm-3,22.29693,R,ugm-3
01-01-2017,06:00,2.49298,R,ugm-3,19.96774,R,ugm-3,23.79026,R,ugm-3
01-01-2017,07:00,8.83587,R,ugm-3,34.70179,R,ugm-3,48.24994,R,ugm-3
01-01-2017,08:00,5.36464,R,ugm-3,37.44957,R,ugm-3,45.67523,R,ugm-3
01-01-2017,09:00,9.15144,R,ugm-3,41.83905,R,ugm-3,55.87106,R,ugm-3
01-01-2017,10:00,13.22225,R,ugm-3,43.42432,R,ugm-3,63.69816,R,ugm-3
01-01-2017,11:00,14.83164,R,ugm-3,43.68580,R,ugm-3,66.42734,R,ugm-3
01-01-2017,12:00,15.30500,R,ugm-3,44.09288,R,ugm-3,67.56021,R,ugm-3
01-01-2017,13:00,11.58131,R,ugm-3,40.89398,R,ugm-3,58.65174,R,ugm-3
01-01-2017,14:00,11.73909,R,ugm-3,45.64698,R,ugm-3,63.64666,R,ugm-3
01-01-2017,15:00,16.06236,R,ugm-3,50.65572,R,ugm-3,75.28432,R,ugm-3
01-01-2017,16:00,10.09814,R,ugm-3,41.05688,R,ugm-3,56.54048,R,ugm-3
01-01-2017,17:00,1.35694,R,ugm-3,13.62508,R,ugm-3,15.70569,R,ugm-3
01-01-2017,18:00,1.42005,R,ugm-3,11.41705,R,ugm-3,13.59443,R,ugm-3
01-01-2017,19:00,1.70406,R,ugm-3,9.74572,R,ugm-3,12.35858,R,ugm-3
01-01-2017,20:00,1.26227,R,ugm-3,10.16566,R,ugm-3,12.10111,R,ugm-3
01-01-2017,21:00,1.19915,R,ugm-3,9.49002,R,ugm-3,11.32869,R,ugm-3
01-01-2017,22:00,1.42005,R,ugm-3,7.76097,R,ugm-3,9.93835,R,ugm-3
01-01-2017,23:00,1.35694,R,ugm-3,9.19659,R,ugm-3,11.27720,R,ugm-3
01-01-2017,24:00,1.00981,R,ugm-3,9.57436,R,ugm-3,11.12272,R,ugm-3
02-01-2017,01:00,1.34775,R,ugm-3,8.71290,R,ugm-3,10.77942,R,ugm-3
02-01-2017,02:00,1.68469,R,ugm-3,8.40225,R,ugm-3,10.98540,R,ugm-3
02-01-2017,03:00,1.48463,R,ugm-3,6.37460,R,ugm-3,8.65100,R,ugm-3
02-01-2017,04:00,1.64257,R,ugm-3,6.08094,R,ugm-3,8.59951,R,ugm-3
02-01-2017,05:00,2.24274,R,ugm-3,7.06597,R,ugm-3,10.50479,R,ugm-3
02-01-2017,06:00,1.10558,R,ugm-3,11.38430,R,ugm-3,13.07949,R,ugm-3
02-01-2017,07:00,2.08480,R,ugm-3,14.62030,R,ugm-3,17.81695,R,ugm-3
02-01-2017,08:00,2.40068,R,ugm-3,22.37501,R,ugm-3,26.05600,R,ugm-3
02-01-2017,09:00,3.72737,R,ugm-3,30.07315,R,ugm-3,35.78837,R,ugm-3
02-01-2017,10:00,6.41234,R,ugm-3,26.62568,R,ugm-3,36.45780,R,ugm-3
02-01-2017,11:00,8.65508,R,ugm-3,24.11376,R,ugm-3,37.38469,R,ugm-3
02-01-2017,12:00,7.20204,R,ugm-3,20.21393,R,ugm-3,31.25690,R,ugm-3
02-01-2017,13:00,5.74899,R,ugm-3,17.29249,R,ugm-3,26.10749,R,ugm-3
02-01-2017,14:00,4.73818,R,ugm-3,16.78262,R,ugm-3,24.04773,R,ugm-3
02-01-2017,15:00,5.33835,R,ugm-3,21.16626,R,ugm-3,29.35162,R,ugm-3
02-01-2017,16:00,3.53784,R,ugm-3,26.45021,R,ugm-3,31.87483,R,ugm-3
02-01-2017,17:00,3.79055,R,ugm-3,34.09581,R,ugm-3,39.90790,R,ugm-3
02-01-2017,18:00,10.32923,R,ugm-3,45.64597,R,ugm-3,61.48391,R,ugm-3
02-01-2017,19:00,24.41743,R,ugm-3,51.02727,R,ugm-3,88.46680,R,ugm-3
02-01-2017,20:00,8.30761,R,ugm-3,42.82394,R,ugm-3,55.56209,R,ugm-3
02-01-2017,21:00,2.90608,R,ugm-3,31.07497,R,ugm-3,35.53090,R,ugm-3
02-01-2017,22:00,4.58024,R,ugm-3,30.31026,R,ugm-3,37.33320,R,ugm-3
02-01-2017,23:00,22.93280,R,ugm-3,37.80396,R,ugm-3,72.96709,R,ugm-3
02-01-2017,24:00,24.70172,R,ugm-3,35.55510,R,ugm-3,73.43053,R,ugm-3
03-01-2017,01:00,24.51219,R,ugm-3,32.79039,R,ugm-3,70.37522,R,ugm-3
03-01-2017,02:00,63.63903,R,ugm-3,36.85534,R,ugm-3,134.43383,R,ugm-3
03-01-2017,03:00,48.67691,R,ugm-3,32.47076,R,ugm-3,107.10765,R,ugm-3
03-01-2017,04:00,40.49565,R,ugm-3,32.86258,R,ugm-3,94.95505,R,ugm-3
03-01-2017,05:00,34.74666,R,ugm-3,35.08634,R,ugm-3,88.36381,R,ugm-3
03-01-2017,06:00,45.77083,R,ugm-3,35.07291,R,ugm-3,105.25386,R,ugm-3
03-01-2017,07:00,82.57070,R,ugm-3,45.79548,R,ugm-3,172.40212,R,ugm-3
03-01-2017,08:00,172.78566,R,ugm-3,61.28056,R,ugm-3,326.21489,R,ugm-3
03-01-2017,09:00,289.78714,R,ugm-3,88.06302,R,ugm-3,532.39711,R,ugm-3
03-01-2017,10:00,209.23807,R,ugm-3,101.68155,R,ugm-3,422.50878,R,ugm-3
03-01-2017,11:00,34.90460,R,ugm-3,61.36361,R,ugm-3,114.88325,R,ugm-3
03-01-2017,12:00,30.95612,R,ugm-3,48.77702,R,ugm-3,96.24240,R,ugm-3
03-01-2017,13:00,7.92856,R,ugm-3,19.76937,R,ugm-3,31.92632,R,ugm-3
03-01-2017,14:00,13.60384,R,ugm-3,22.32742,R,ugm-3,43.18635,R,ugm-3
03-01-2017,15:00,,,,,,,,,
03-01-2017,16:00,15.66759,R,ugm-3,29.78800,R,ugm-3,53.81130,R,ugm-3
03-01-2017,17:00,7.58109,R,ugm-3,32.24877,R,ugm-3,43.87294,R,ugm-3
03-01-2017,18:00,6.79139,R,ugm-3,33.71709,R,ugm-3,44.13041,R,ugm-3
03-01-2017,19:00,4.20119,R,ugm-3,25.48459,R,ugm-3,31.92632,R,ugm-3
03-01-2017,20:00,3.75896,R,ugm-3,22.45509,R,ugm-3,28.21875,R,ugm-3
03-01-2017,21:00,6.38075,R,ugm-3,30.74215,R,ugm-3,40.52583,R,ugm-3
03-01-2017,22:00,6.91774,R,ugm-3,32.33899,R,ugm-3,42.94605,R,ugm-3
03-01-2017,23:00,2.05321,R,ugm-3,15.59563,R,ugm-3,18.74384,R,ugm-3
03-01-2017,24:00,0.94764,R,ugm-3,13.27428,R,ugm-3,14.72730,R,ugm-3
04-01-2017,01:00,1.22260,R,ugm-3,12.55709,R,ugm-3,14.43173,R,ugm-3
04-01-2017,02:00,1.18045,R,ugm-3,5.47459,R,ugm-3,7.28458,R,ugm-3
04-01-2017,03:00,0.60076,R,ugm-3,3.92378,R,ugm-3,4.84494,R,ugm-3
04-01-2017,04:00,1.29638,R,ugm-3,2.75410,R,ugm-3,4.74185,R,ugm-3
04-01-2017,05:00,1.92876,R,ugm-3,3.27917,R,ugm-3,6.23657,R,ugm-3
04-01-2017,06:00,0.82210,R,ugm-3,7.14080,R,ugm-3,8.40133,R,ugm-3
04-01-2017,07:00,1.77067,R,ugm-3,10.63436,R,ugm-3,13.34935,R,ugm-3
04-01-2017,08:00,2.05524,R,ugm-3,12.10507,R,ugm-3,15.25640,R,ugm-3
04-01-2017,09:00,5.24876,R,ugm-3,14.26964,R,ugm-3,22.31763,R,ugm-3
04-01-2017,10:00,2.68762,R,ugm-3,13.55790,R,ugm-3,17.67886,R,ugm-3
04-01-2017,11:00,4.04724,R,ugm-3,14.10182,R,ugm-3,20.30750,R,ugm-3
04-01-2017,12:00,2.81410,R,ugm-3,13.15781,R,ugm-3,17.47270,R,ugm-3
04-01-2017,13:00,2.81410,R,ugm-3,14.03402,R,ugm-3,18.34891,R,ugm-3
04-01-2017,14:00,2.90895,R,ugm-3,20.64056,R,ugm-3,25.10089,R,ugm-3
04-01-2017,15:00,3.41486,R,ugm-3,24.50362,R,ugm-3,29.73966,R,ugm-3
04-01-2017,16:00,2.94057,R,ugm-3,24.30309,R,ugm-3,28.81191,R,ugm-3
04-01-2017,17:00,2.30819,R,ugm-3,25.06656,R,ugm-3,28.60574,R,ugm-3
04-01-2017,18:00,2.81410,R,ugm-3,41.55738,R,ugm-3,45.87227,R,ugm-3
04-01-2017,19:00,3.19353,R,ugm-3,40.97560,R,ugm-3,45.87227,R,ugm-3
04-01-2017,20:00,4.14210,R,ugm-3,46.37621,R,ugm-3,52.72734,R,ugm-3
04-01-2017,21:00,5.47010,R,ugm-3,53.61751,R,ugm-3,62.00488,R,ugm-3
04-01-2017,22:00,5.53334,R,ugm-3,57.33465,R,ugm-3,65.81897,R,ugm-3
04-01-2017,23:00,9.01143,R,ugm-3,55.35186,R,ugm-3,69.16920,R,ugm-3
04-01-2017,24:00,9.89676,R,ugm-3,52.86045,R,ugm-3,68.03528,R,ugm-3
05-01-2017,01:00,4.55763,R,ugm-3,45.72188,R,ugm-3,52.71016,R,ugm-3
05-01-2017,02:00,15.57192,R,ugm-3,42.37188,R,ugm-3,66.24849,R,ugm-3
05-01-2017,03:00,2.02562,R,ugm-3,32.40645,R,ugm-3,35.51235,R,ugm-3
05-01-2017,04:00,4.52598,R,ugm-3,31.87129,R,ugm-3,38.81103,R,ugm-3
05-01-2017,05:00,7.62771,R,ugm-3,32.01186,R,ugm-3,43.70751,R,ugm-3
05-01-2017,06:00,63.23718,R,ugm-3,43.18004,R,ugm-3,140.14236,R,ugm-3
05-01-2017,07:00,140.17890,R,ugm-3,53.54364,R,ugm-3,268.48163,R,ugm-3
05-01-2017,08:00,150.97163,R,ugm-3,65.80693,R,ugm-3,297.29354,R,ugm-3
05-01-2017,09:00,268.14081,R,ugm-3,94.06995,R,ugm-3,505.21346,R,ugm-3
05-01-2017,10:00,209.96768,R,ugm-3,84.25557,R,ugm-3,406.20152,R,ugm-3
05-01-2017,11:00,26.11145,R,ugm-3,50.72825,R,ugm-3,90.76524,R,ugm-3
05-01-2017,12:00,19.68645,R,ugm-3,43.82867,R,ugm-3,74.01413,R,ugm-3
05-01-2017,13:00,20.98411,R,ugm-3,42.97287,R,ugm-3,75.14805,R,ugm-3
05-01-2017,14:00,20.44605,R,ugm-3,47.04501,R,ugm-3,78.39519,R,ugm-3
05-01-2017,15:00,17.05948,R,ugm-3,50.17602,R,ugm-3,76.33352,R,ugm-3
05-01-2017,16:00,23.54778,R,ugm-3,59.29792,R,ugm-3,95.40401,R,ugm-3
05-01-2017,17:00,124.19553,R,ugm-3,71.91765,R,ugm-3,262.34814,R,ugm-3
05-01-2017,18:00,248.54932,R,ugm-3,99.11201,R,ugm-3,480.21565,R,ugm-3
05-01-2017,19:00,205.34674,R,ugm-3,83.71271,R,ugm-3,398.57332,R,ugm-3
05-01-2017,20:00,259.18380,R,ugm-3,94.24834,R,ugm-3,491.65795,R,ugm-3
05-01-2017,21:00,288.93502,R,ugm-3,96.61591,R,ugm-3,539.64343,R,ugm-3
05-01-2017,22:00,282.22517,R,ugm-3,94.68878,R,ugm-3,527.42801,R,ugm-3
05-01-2017,23:00,286.59290,R,ugm-3,91.13574,R,ugm-3,530.57206,R,ugm-3
05-01-2017,24:00,227.94501,R,ugm-3,77.10129,R,ugm-3,426.61210,R,ugm-3
06-01-2017,01:00,291.18219,R,ugm-3,88.06482,R,ugm-3,534.53795,R,ugm-3
06-01-2017,02:00,323.42323,R,ugm-3,101.36231,R,ugm-3,597.27101,R,ugm-3
06-01-2017,03:00,237.28183,R,ugm-3,84.38414,R,ugm-3,448.21121,R,ugm-3
06-01-2017,04:00,155.84577,R,ugm-3,59.48616,R,ugm-3,298.44634,R,ugm-3
06-01-2017,05:00,131.69664,R,ugm-3,54.82985,R,ugm-3,256.76188,R,ugm-3
06-01-2017,06:00,127.55046,R,ugm-3,47.98027,R,ugm-3,243.55492,R,ugm-3
06-01-2017,07:00,98.40059,R,ugm-3,51.04324,R,ugm-3,201.92204,R,ugm-3
06-01-2017,08:00,98.62214,R,ugm-3,51.89009,R,ugm-3,203.10860,R,ugm-3
06-01-2017,09:00,155.81412,R,ugm-3,59.53469,R,ugm-3,298.44634,R,ugm-3
06-01-2017,10:00,200.97901,R,ugm-3,71.53658,R,ugm-3,379.70010,R,ugm-3
06-01-2017,11:00,172.14564,R,ugm-3,67.51077,R,ugm-3,331.46374,R,ugm-3
06-01-2017,12:00,70.10528,R,ugm-3,51.86729,R,ugm-3,159.36055,R,ugm-3
06-01-2017,13:00,71.05478,R,ugm-3,49.63755,R,ugm-3,158.58670,R,ugm-3
06-01-2017,14:00,69.82042,R,ugm-3,53.49062,R,ugm-3,160.54711,R,ugm-3
06-01-2017,15:00,47.79186,R,ugm-3,57.39685,R,ugm-3,130.67668,R,ugm-3
06-01-2017,16:00,17.97734,R,ugm-3,67.20539,R,ugm-3,94.77026,R,ugm-3
06-01-2017,17:00,21.45886,R,ugm-3,69.86353,R,ugm-3,102.76666,R,ugm-3
06-01-2017,18:00,15.22376,R,ugm-3,60.95477,R,ugm-3,84.29755,R,ugm-3
06-01-2017,19:00,5.69704,R,ugm-3,43.57660,R,ugm-3,52.31194,R,ugm-3
06-01-2017,20:00,6.74150,R,ugm-3,37.84795,R,ugm-3,48.18477,R,ugm-3
06-01-2017,21:00,4.14618,R,ugm-3,31.81898,R,ugm-3,38.17637,R,ugm-3
06-01-2017,22:00,2.53202,R,ugm-3,25.16262,R,ugm-3,29.04499,R,ugm-3
06-01-2017,23:00,3.41823,R,ugm-3,28.29209,R,ugm-3,33.53330,R,ugm-3
06-01-2017,24:00,3.98793,R,ugm-3,21.89846,R,ugm-3,28.01320,R,ugm-3
07-01-2017,01:00,3.29487,R,ugm-3,18.40405,R,ugm-3,23.45611,R,ugm-3
07-01-2017,02:00,2.19658,R,ugm-3,15.54818,R,ugm-3,18.91622,R,ugm-3
07-01-2017,03:00,7.03328,R,ugm-3,30.43596,R,ugm-3,41.22016,R,ugm-3
07-01-2017,04:00,8.33221,R,ugm-3,29.88879,R,ugm-3,42.66467,R,ugm-3
07-01-2017,05:00,1.67912,R,ugm-3,21.05347,R,ugm-3,23.62808,R,ugm-3
07-01-2017,06:00,2.05929,R,ugm-3,24.03023,R,ugm-3,27.18777,R,ugm-3
07-01-2017,07:00,3.77009,R,ugm-3,32.85995,R,ugm-3,38.64068,R,ugm-3
07-01-2017,08:00,4.15027,R,ugm-3,35.16605,R,ugm-3,41.52970,R,ugm-3
07-01-2017,09:00,4.34036,R,ugm-3,26.46546,R,ugm-3,33.12058,R,ugm-3
07-01-2017,10:00,7.69859,R,ugm-3,27.66178,R,ugm-3,39.46611,R,ugm-3
07-01-2017,11:00,3.26319,R,ugm-3,12.64019,R,ugm-3,17.64367,R,ugm-3
07-01-2017,12:00,4.34036,R,ugm-3,14.70301,R,ugm-3,21.35813,R,ugm-3
07-01-2017,13:00,2.94637,R,ugm-3,14.77684,R,ugm-3,19.29454,R,ugm-3
07-01-2017,14:00,3.04142,R,ugm-3,17.26218,R,ugm-3,21.92562,R,ugm-3
07-01-2017,15:00,4.59381,R,ugm-3,26.85069,R,ugm-3,33.89443,R,ugm-3
07-01-2017,16:00,2.34443,R,ugm-3,21.21991,R,ugm-3,24.81464,R,ugm-3
07-01-2017,17:00,2.72460,R,ugm-3,28.27225,R,ugm-3,32.44991,R,ugm-3
07-01-2017,18:00,9.40938,R,ugm-3,41.85683,R,ugm-3,56.28435,R,ugm-3
07-01-2017,19:00,7.63522,R,ugm-3,39.46979,R,ugm-3,51.17697,R,ugm-3
07-01-2017,20:00,7.60354,R,ugm-3,38.12545,R,ugm-3,49.78405,R,ugm-3
07-01-2017,21:00,24.80655,R,ugm-3,41.20558,R,ugm-3,79.24176,R,ugm-3
07-01-2017,22:00,13.81310,R,ugm-3,42.73983,R,ugm-3,63.91962,R,ugm-3
07-01-2017,23:00,7.35009,R,ugm-3,32.73602,R,ugm-3,44.00600,R,ugm-3
07-01-2017,24:00,16.37929,R,ugm-3,29.41573,R,ugm-3,54.53030,R,ugm-3
08-01-2017,01:00,28.76673,R,ugm-3,31.35123,R,ugm-3,75.45960,R,ugm-3
08-01-2017,02:00,43.88933,R,ugm-3,28.33662,R,ugm-3,95.63265,R,ugm-3
08-01-2017,03:00,12.00726,R,ugm-3,23.67369,R,ugm-3,42.08456,R,ugm-3
08-01-2017,04:00,3.58000,R,ugm-3,18.62546,R,ugm-3,24.11471,R,ugm-3
08-01-2017,05:00,12.45080,R,ugm-3,20.30846,R,ugm-3,39.39941,R,ugm-3
08-01-2017,06:00,35.64160,R,ugm-3,26.31791,R,ugm-3,80.96760,R,ugm-3
08-01-2017,07:00,43.65700,R,ugm-3,27.04046,R,ugm-3,93.98025,R,ugm-3
08-01-2017,08:00,63.36284,R,ugm-3,25.94880,R,ugm-3,123.10380,R,ugm-3
08-01-2017,09:00,103.56656,R,ugm-3,31.22615,R,ugm-3,190.02600,R,ugm-3
08-01-2017,10:00,55.75930,R,ugm-3,34.45751,R,ugm-3,119.95391,R,ugm-3
08-01-2017,11:00,38.80974,R,ugm-3,35.40229,R,ugm-3,94.90973,R,ugm-3
08-01-2017,12:00,31.20620,R,ugm-3,44.01428,R,ugm-3,91.86311,R,ugm-3
08-01-2017,13:00,9.56779,R,ugm-3,40.58172,R,ugm-3,55.25213,R,ugm-3
08-01-2017,14:00,6.11451,R,ugm-3,33.32876,R,ugm-3,42.70421,R,ugm-3
08-01-2017,15:00,11.81717,R,ugm-3,43.17431,R,ugm-3,61.29371,R,ugm-3
08-01-2017,16:00,9.63115,R,ugm-3,44.77048,R,ugm-3,59.53804,R,ugm-3
08-01-2017,17:00,4.34036,R,ugm-3,39.40553,R,ugm-3,46.06065,R,ugm-3
08-01-2017,18:00,7.54018,R,ugm-3,49.52572,R,ugm-3,61.08716,R,ugm-3
08-01-2017,19:00,7.06496,R,ugm-3,51.08058,R,ugm-3,61.91336,R,ugm-3
08-01-2017,20:00,10.39151,R,ugm-3,53.67393,R,ugm-3,69.60735,R,ugm-3
08-01-2017,21:00,5.54425,R,ugm-3,47.62890,R,ugm-3,56.12996,R,ugm-3
08-01-2017,22:00,7.28673,R,ugm-3,47.02264,R,ugm-3,58.19546,R,ugm-3
08-01-2017,23:00,7.25505,R,ugm-3,39.99688,R,ugm-3,51.12113,R,ugm-3
08-01-2017,24:00,3.96018,R,ugm-3,26.51108,R,ugm-3,32.58326,R,ugm-3
09-01-2017,01:00,4.98945,R,ugm-3,32.42032,R,ugm-3,40.07070,R,ugm-3
09-01-2017,02:00,5.83512,R,ugm-3,33.25799,R,ugm-3,42.20505,R,ugm-3
09-01-2017,03:00,8.08671,R,ugm-3,24.10826,R,ugm-3,36.50771,R,ugm-3
09-01-2017,04:00,7.95986,R,ugm-3,20.94632,R,ugm-3,33.15128,R,ugm-3
09-01-2017,05:00,4.85203,R,ugm-3,21.68388,R,ugm-3,29.12355,R,ugm-3
09-01-2017,06:00,13.73156,R,ugm-3,30.53110,R,ugm-3,51.58586,R,ugm-3
09-01-2017,07:00,10.21146,R,ugm-3,41.97010,R,ugm-3,57.62745,R,ugm-3
09-01-2017,08:00,12.24107,R,ugm-3,45.57095,R,ugm-3,64.34033,R,ugm-3
09-01-2017,09:00,11.32140,R,ugm-3,43.41810,R,ugm-3,60.77734,R,ugm-3
09-01-2017,10:00,9.32351,R,ugm-3,38.94242,R,ugm-3,53.23826,R,ugm-3
09-01-2017,11:00,6.97677,R,ugm-3,30.56079,R,ugm-3,41.25836,R,ugm-3
09-01-2017,12:00,4.24949,R,ugm-3,20.28407,R,ugm-3,26.79986,R,ugm-3
09-01-2017,13:00,6.78650,R,ugm-3,30.74927,R,ugm-3,41.15509,R,ugm-3
09-01-2017,14:00,9.13323,R,ugm-3,39.07926,R,ugm-3,53.08335,R,ugm-3
09-01-2017,15:00,7.99158,R,ugm-3,31.12192,R,ugm-3,43.37550,R,ugm-3
09-01-2017,16:00,7.73788,R,ugm-3,31.51092,R,ugm-3,43.37550,R,ugm-3
09-01-2017,17:00,7.54760,R,ugm-3,33.71326,R,ugm-3,45.28609,R,ugm-3
09-01-2017,18:00,8.65754,R,ugm-3,37.12349,R,ugm-3,50.39820,R,ugm-3
09-01-2017,19:00,1.90276,R,ugm-3,11.02461,R,ugm-3,13.94213,R,ugm-3
09-01-2017,20:00,1.90276,R,ugm-3,11.85081,R,ugm-3,14.76833,R,ugm-3
09-01-2017,21:00,2.06132,R,ugm-3,15.58377,R,ugm-3,18.74441,R,ugm-3
09-01-2017,22:00,1.39536,R,ugm-3,12.83536,R,ugm-3,14.97488,R,ugm-3
09-01-2017,23:00,2.06132,R,ugm-3,16.15178,R,ugm-3,19.31243,R,ugm-3
09-01-2017,24:00,10.59201,R,ugm-3,32.91805,R,ugm-3,49.15890,R,ugm-3
10-01-2017,01:00,2.91756,R,ugm-3,22.88523,R,ugm-3,27.35876,R,ugm-3
10-01-2017,02:00,1.47992,R,ugm-3,8.96376,R,ugm-3,11.23294,R,ugm-3
10-01-2017,03:00,1.61734,R,ugm-3,8.83919,R,ugm-3,11.31908,R,ugm-3
10-01-2017,04:00,1.61734,R,ugm-3,6.35830,R,ugm-3,8.83819,R,ugm-3
10-01-2017,05:00,1.74419,R,ugm-3,11.74581,R,ugm-3,14.42020,R,ugm-3
10-01-2017,06:00,3.17126,R,ugm-3,23.09922,R,ugm-3,27.96175,R,ugm-3
10-01-2017,07:00,3.10784,R,ugm-3,19.47513,R,ugm-3,24.24041,R,ugm-3
10-01-2017,08:00,5.77169,R,ugm-3,30.12092,R,ugm-3,38.97073,R,ugm-3
10-01-2017,09:00,5.32772,R,ugm-3,30.69830,R,ugm-3,38.86736,R,ugm-3
10-01-2017,10:00,4.72518,R,ugm-3,19.26939,R,ugm-3,26.51457,R,ugm-3
10-01-2017,11:00,3.83723,R,ugm-3,13.75676,R,ugm-3,19.64042,R,ugm-3
10-01-2017,12:00,3.48839,R,ugm-3,12.12085,R,ugm-3,17.46964,R,ugm-3
10-01-2017,13:00,3.04441,R,ugm-3,11.14768,R,ugm-3,15.81571,R,ugm-3
10-01-2017,14:00,2.63215,R,ugm-3,15.39778,R,ugm-3,19.43368,R,ugm-3
10-01-2017,15:00,3.04441,R,ugm-3,15.48924,R,ugm-3,20.15727,R,ugm-3
10-01-2017,16:00,3.32982,R,ugm-3,23.11452,R,ugm-3,28.22018,R,ugm-3
10-01-2017,17:00,13.54128,R,ugm-3,45.34251,R,ugm-3,66.10552,R,ugm-3
10-01-2017,18:00,36.31093,R,ugm-3,58.23845,R,ugm-3,113.91443,R,ugm-3
10-01-2017,19:00,17.34679,R,ugm-3,51.03329,R,ugm-3,77.63134,R,ugm-3
10-01-2017,20:00,14.68294,R,ugm-3,43.64368,R,ugm-3,66.15720,R,ugm-3
10-01-2017,21:00,16.87111,R,ugm-3,49.07504,R,ugm-3,74.94370,R,ugm-3
10-01-2017,22:00,13.92183,R,ugm-3,41.91631,R,ugm-3,63.26282,R,ugm-3
10-01-2017,23:00,12.74847,R,ugm-3,36.63456,R,ugm-3,56.18194,R,ugm-3
10-01-2017,24:00,17.47364,R,ugm-3,35.07477,R,ugm-3,61.86732,R,ugm-3
11-01-2017,01:00,,,,,,,,,
11-01-2017,02:00,6.98363,R,ugm-3,23.19748,R,ugm-3,33.90557,R,ugm-3
11-01-2017,03:00,9.30093,R,ugm-3,21.29827,R,ugm-3,35.55950,R,ugm-3
11-01-2017,04:00,7.49153,R,ugm-3,19.98950,R,ugm-3,31.47636,R,ugm-3
11-01-2017,05:00,13.74506,R,ugm-3,28.54244,R,ugm-3,49.61790,R,ugm-3
11-01-2017,06:00,8.92000,R,ugm-3,25.29358,R,ugm-3,38.97073,R,ugm-3
11-01-2017,07:00,4.25367,R,ugm-3,15.23732,R,ugm-3,21.75952,R,ugm-3
11-01-2017,08:00,2.53950,R,ugm-3,12.28365,R,ugm-3,16.17750,R,ugm-3
11-01-2017,09:00,4.92029,R,ugm-3,21.45113,R,ugm-3,28.99546,R,ugm-3
11-01-2017,10:00,6.34876,R,ugm-3,21.27656,R,ugm-3,31.01119,R,ugm-3
11-01-2017,11:00,3.01566,R,ugm-3,10.77828,R,ugm-3,15.40222,R,ugm-3
11-01-2017,12:00,2.15858,R,ugm-3,5.11493,R,ugm-3,8.42471,R,ugm-3
11-01-2017,13:00,1.71416,R,ugm-3,5.89973,R,ugm-3,8.52808,R,ugm-3
11-01-2017,14:00,1.77765,R,ugm-3,5.69901,R,ugm-3,8.42471,R,ugm-3
11-01-2017,15:00,1.30150,R,ugm-3,6.53248,R,ugm-3,8.52808,R,ugm-3
11-01-2017,16:00,1.87288,R,ugm-3,7.93052,R,ugm-3,10.80223,R,ugm-3
11-01-2017,17:00,2.06335,R,ugm-3,12.23847,R,ugm-3,15.40222,R,ugm-3
11-01-2017,18:00,1.84114,R,ugm-3,12.37244,R,ugm-3,15.19548,R,ugm-3
11-01-2017,19:00,1.80940,R,ugm-3,14.12673,R,ugm-3,16.90110,R,ugm-3
11-01-2017,20:00,2.06335,R,ugm-3,19.78453,R,ugm-3,22.94828,R,ugm-3
11-01-2017,21:00,2.53950,R,ugm-3,21.27690,R,ugm-3,25.17075,R,ugm-3
11-01-2017,22:00,1.23801,R,ugm-3,14.74442,R,ugm-3,16.64267,R,ugm-3
11-01-2017,23:00,1.26975,R,ugm-3,11.18114,R,ugm-3,13.12807,R,ugm-3
11-01-2017,24:00,0.79360,R,ugm-3,9.43035,R,ugm-3,10.64717,R,ugm-3
12-01-2017,01:00,2.49963,R,ugm-3,14.44632,R,ugm-3,18.27904,R,ugm-3
12-01-2017,02:00,0.72023,R,ugm-3,6.89705,R,ugm-3,8.00139,R,ugm-3
12-01-2017,03:00,1.90650,R,ugm-3,3.80205,R,ugm-3,6.72531,R,ugm-3
12-01-2017,04:00,0.82615,R,ugm-3,2.92364,R,ugm-3,4.19038,R,ugm-3
12-01-2017,05:00,2.92330,R,ugm-3,16.00399,R,ugm-3,20.48632,R,ugm-3
12-01-2017,06:00,4.38495,R,ugm-3,20.28120,R,ugm-3,27.00469,R,ugm-3
12-01-2017,07:00,4.48027,R,ugm-3,24.79102,R,ugm-3,31.66067,R,ugm-3
12-01-2017,08:00,8.92877,R,ugm-3,38.24947,R,ugm-3,51.94006,R,ugm-3
12-01-2017,09:00,21.35278,R,ugm-3,55.77491,R,ugm-3,88.51538,R,ugm-3
12-01-2017,10:00,25.19755,R,ugm-3,59.29510,R,ugm-3,97.93081,R,ugm-3
12-01-2017,11:00,13.79034,R,ugm-3,48.07403,R,ugm-3,69.21892,R,ugm-3
12-01-2017,12:00,13.05951,R,ugm-3,44.59037,R,ugm-3,64.61467,R,ugm-3
12-01-2017,13:00,11.85206,R,ugm-3,44.99324,R,ugm-3,63.16615,R,ugm-3
12-01-2017,14:00,2.00182,R,ugm-3,26.36673,R,ugm-3,29.43615,R,ugm-3
12-01-2017,15:00,4.54382,R,ugm-3,43.47270,R,ugm-3,50.43980,R,ugm-3
12-01-2017,16:00,3.97187,R,ugm-3,43.88408,R,ugm-3,49.97420,R,ugm-3
12-01-2017,17:00,2.19247,R,ugm-3,28.40239,R,ugm-3,31.76414,R,ugm-3
12-01-2017,18:00,2.22425,R,ugm-3,26.23262,R,ugm-3,29.64308,R,ugm-3
12-01-2017,19:00,3.05040,R,ugm-3,35.67463,R,ugm-3,40.35184,R,ugm-3
12-01-2017,20:00,1.90650,R,ugm-3,21.64998,R,ugm-3,24.57323,R,ugm-3
12-01-2017,21:00,1.46165,R,ugm-3,15.60677,R,ugm-3,17.84793,R,ugm-3
12-01-2017,22:00,1.62052,R,ugm-3,11.22451,R,ugm-3,13.70928,R,ugm-3
12-01-2017,23:00,1.52520,R,ugm-3,7.80109,R,ugm-3,10.13969,R,ugm-3
12-01-2017,24:00,1.55697,R,ugm-3,5.42438,R,ugm-3,7.81170,R,ugm-3
13-01-2017,01:00,1.39810,R,ugm-3,4.20221,R,ugm-3,6.34593,R,ugm-3
13-01-2017,02:00,1.99123,R,ugm-3,3.63764,R,ugm-3,6.69082,R,ugm-3
13-01-2017,03:00,1.65230,R,ugm-3,2.89849,R,ugm-3,5.43198,R,ugm-3
13-01-2017,04:00,1.04857,R,ugm-3,2.99646,R,ugm-3,4.60425,R,ugm-3
13-01-2017,05:00,1.17567,R,ugm-3,2.49118,R,ugm-3,4.29385,R,ugm-3
13-01-2017,06:00,1.20745,R,ugm-3,2.75285,R,ugm-3,4.60425,R,ugm-3
13-01-2017,07:00,1.84295,R,ugm-3,4.57202,R,ugm-3,7.39784,R,ugm-3
13-01-2017,08:00,1.90650,R,ugm-3,9.54443,R,ugm-3,12.46768,R,ugm-3
13-01-2017,09:00,3.08217,R,ugm-3,14.98439,R,ugm-3,19.71032,R,ugm-3
13-01-2017,10:00,2.63732,R,ugm-3,11.37263,R,ugm-3,15.41647,R,ugm-3
13-01-2017,11:00,2.31957,R,ugm-3,7.66946,R,ugm-3,11.22609,R,ugm-3
13-01-2017,12:00,2.06537,R,ugm-3,6.97283,R,ugm-3,10.13969,R,ugm-3
13-01-2017,13:00,2.28780,R,ugm-3,6.58005,R,ugm-3,10.08796,R,ugm-3
13-01-2017,14:00,1.93827,R,ugm-3,6.39172,R,ugm-3,9.36370,R,ugm-3
13-01-2017,15:00,2.00182,R,ugm-3,7.58761,R,ugm-3,10.65702,R,ugm-3
13-01-2017,16:00,2.03360,R,ugm-3,12.50526,R,ugm-3,15.62340,R,ugm-3
13-01-2017,17:00,1.62052,R,ugm-3,14.53543,R,ugm-3,17.02020,R,ugm-3
13-01-2017,18:00,1.84295,R,ugm-3,11.65946,R,ugm-3,14.48528,R,ugm-3
13-01-2017,19:00,2.19247,R,ugm-3,11.58913,R,ugm-3,14.95087,R,ugm-3
13-01-2017,20:00,1.97005,R,ugm-3,11.46458,R,ugm-3,14.48528,R,ugm-3
13-01-2017,21:00,1.08035,R,ugm-3,9.93171,R,ugm-3,11.58822,R,ugm-3
13-01-2017,22:00,1.74762,R,ugm-3,9.16723,R,ugm-3,11.84689,R,ugm-3
13-01-2017,23:00,1.62052,R,ugm-3,6.41333,R,ugm-3,8.89810,R,ugm-3
13-01-2017,24:00,1.14390,R,ugm-3,5.33348,R,ugm-3,7.08744,R,ugm-3
14-01-2017,01:00,0.93298,R,ugm-3,4.36892,R,ugm-3,5.79947,R,ugm-3
14-01-2017,02:00,1.18743,R,ugm-3,4.11685,R,ugm-3,5.93755,R,ugm-3
14-01-2017,03:00,1.62211,R,ugm-3,4.08897,R,ugm-3,6.57618,R,ugm-3
14-01-2017,04:00,1.52670,R,ugm-3,5.68515,R,ugm-3,8.02605,R,ugm-3
14-01-2017,05:00,1.78114,R,ugm-3,8.40185,R,ugm-3,11.13290,R,ugm-3
14-01-2017,06:00,3.49868,R,ugm-3,16.38343,R,ugm-3,21.74799,R,ugm-3
14-01-2017,07:00,1.87656,R,ugm-3,10.74103,R,ugm-3,13.61839,R,ugm-3
14-01-2017,08:00,1.46308,R,ugm-3,8.88954,R,ugm-3,11.13290,R,ugm-3
14-01-2017,09:00,1.97198,R,ugm-3,8.78239,R,ugm-3,11.80605,R,ugm-3
14-01-2017,10:00,2.25824,R,ugm-3,10.31115,R,ugm-3,13.77373,R,ugm-3
14-01-2017,11:00,2.76714,R,ugm-3,9.84153,R,ugm-3,14.08442,R,ugm-3
14-01-2017,12:00,2.95797,R,ugm-3,9.91139,R,ugm-3,14.44688,R,ugm-3
14-01-2017,13:00,2.00379,R,ugm-3,10.49417,R,ugm-3,13.56661,R,ugm-3
14-01-2017,14:00,2.60810,R,ugm-3,19.09526,R,ugm-3,23.09430,R,ugm-3
14-01-2017,15:00,4.16661,R,ugm-3,24.00670,R,ugm-3,30.39541,R,ugm-3
14-01-2017,16:00,3.43506,R,ugm-3,22.07331,R,ugm-3,27.34034,R,ugm-3
14-01-2017,17:00,4.29383,R,ugm-3,29.04150,R,ugm-3,35.62529,R,ugm-3
14-01-2017,18:00,20.61039,R,ugm-3,52.07585,R,ugm-3,83.67800,R,ugm-3
14-01-2017,19:00,20.16510,R,ugm-3,49.18572,R,ugm-3,80.10511,R,ugm-3
14-01-2017,20:00,28.68915,R,ugm-3,50.40724,R,ugm-3,94.39665,R,ugm-3
14-01-2017,21:00,5.88414,R,ugm-3,32.92034,R,ugm-3,41.94256,R,ugm-3
14-01-2017,22:00,2.16282,R,ugm-3,23.45447,R,ugm-3,26.77075,R,ugm-3
14-01-2017,23:00,1.87656,R,ugm-3,21.35612,R,ugm-3,24.23348,R,ugm-3
14-01-2017,24:00,2.09921,R,ugm-3,26.34818,R,ugm-3,29.56692,R,ugm-3
15-01-2017,01:00,1.31465,R,ugm-3,16.41824,R,ugm-3,18.43401,R,ugm-3
15-01-2017,02:00,1.73874,R,ugm-3,12.93730,R,ugm-3,15.60332,R,ugm-3
15-01-2017,03:00,2.19462,R,ugm-3,19.67747,R,ugm-3,23.04252,R,ugm-3
15-01-2017,04:00,0.76335,R,ugm-3,10.63560,R,ugm-3,11.80605,R,ugm-3
15-01-2017,05:00,1.68573,R,ugm-3,19.52572,R,ugm-3,22.11046,R,ugm-3
15-01-2017,06:00,9.92352,R,ugm-3,31.28343,R,ugm-3,46.49928,R,ugm-3
15-01-2017,07:00,43.28817,R,ugm-3,57.48573,R,ugm-3,123.86000,R,ugm-3
15-01-2017,08:00,48.31354,R,ugm-3,54.28521,R,ugm-3,128.36494,R,ugm-3
15-01-2017,09:00,42.49302,R,ugm-3,50.42000,R,ugm-3,115.57505,R,ugm-3
15-01-2017,10:00,42.87469,R,ugm-3,48.48847,R,ugm-3,114.22875,R,ugm-3
15-01-2017,11:00,32.09241,R,ugm-3,49.33146,R,ugm-3,98.53912,R,ugm-3
15-01-2017,12:00,9.09656,R,ugm-3,32.60320,R,ugm-3,46.55106,R,ugm-3
15-01-2017,13:00,4.35744,R,ugm-3,20.71080,R,ugm-3,27.39212,R,ugm-3
15-01-2017,14:00,1.87656,R,ugm-3,10.32678,R,ugm-3,13.20414,R,ugm-3
15-01-2017,15:00,1.68573,R,ugm-3,9.53200,R,ugm-3,12.11674,R,ugm-3
15-01-2017,16:00,0.93298,R,ugm-3,8.58043,R,ugm-3,10.01098,R,ugm-3
15-01-2017,17:00,1.30405,R,ugm-3,10.42791,R,ugm-3,12.42743,R,ugm-3
15-01-2017,18:00,1.97198,R,ugm-3,12.56240,R,ugm-3,15.58606,R,ugm-3